Regional Weather Roundup
Issued by NWS

Home | Current Version | Previous Version | Text Only | Print | Product List | Glossary On
Versions: 1 2 3 4 5 6 7 8 9 10 11 12 13 14 15 16 17 18 19 20 21 22 23 24 25 26 27
000
ASUS42 KFFC 062103
RWRGA
WEATHER ROUNDUP FOR GEORGIA
NATIONAL WEATHER SERVICE PEACHTREE CITY GA
500 PM EDT FRI MAY 06 2016

NOTE: "FAIR" INDICATES FEW OR NO CLOUDS BELOW 12,000 FEET WITH NO
SIGNIFICANT WEATHER AND/OR OBSTRUCTIONS TO VISIBILITY.

* = USE WITH CAUTION. THE STATIONS MARKED WITH AN ASTERISK MAY NOT
REPORT WEATHER SUCH AS PRECIPITATION, FOG, OR THUNDER AND ARE NOT
QUALITY CONTROLLED BY NWS.

THE REMARK "TC" DENOTES TEMPERATURE READING IN DEGREES CELSIUS.

GAZ001>058-062200-
NORTH GEORGIA

CITY           SKY/WX    TMP DP  RH WIND       PRES   REMARKS
ATLANTA        MOSUNNY   70  38  31 N20G25    29.90F
ATHENS         PTSUNNY   72  39  30 VRB5      29.85F
CHAMBLEE       MOSUNNY   69  40  34 NW12      29.89F
PEACHTREE CITY MOSUNNY   70  37  29 NW21G35   29.91F
ROME           PTSUNNY   72  41  32 N14G23    29.92F
WEST ATLANTA   PTSUNNY   69  37  30 N17G28    29.90F
GAINESVILLE    SUNNY     69  37  30 NW15G23   29.89F
CARTERSVILLE   LGT RAIN  68  42  38 N9        29.92F


CITY           SKY/WX    TMP DP  RH WIND       PRES   REMARKS
DALTON*        MOSUNNY   68  43  40 N10G22    29.92F
LAWRENCEVILLE* MOSUNNY   68  37  32 NW16G25   29.89S
MARIETTA       MOSUNNY   70  39  32 NW18G25   29.90F
KENNESAW*      MOSUNNY   66  37  34 N12G20    29.90F
CANTON*        MOSUNNY   70  27  19 NW5       29.91F
BLAIRSVILLE*     N/A    N/A N/A N/A MISG      29.90F
$$

GAZ059>098-102>109-062200-
CENTRAL GEORGIA

CITY           SKY/WX    TMP DP  RH WIND       PRES   REMARKS
AUGUSTA-BUSH   CLOUDY    72  43  35 W12       29.81F
AUGUSTA-DANIEL PTSUNNY   73  42  32 W9        29.83S
COLUMBUS       MOSUNNY   72  39  30 N10G23    29.90F
MACON          CLOUDY    69  41  36 NW10      29.87F
ROBINS AFB     PTSUNNY   71  43  36 NW14      29.86F


CITY           SKY/WX    TMP DP  RH WIND       PRES   REMARKS
LAGRANGE*      PTSUNNY   71  47  42 N14       29.92S
SYLVANIA*      PTSUNNY   72  48  43 NW7       29.84S
MILLEDGEVILLE* CLOUDY    70  39  32 N7        29.86S
$$

GAZ099>101-110>166-062200-
SOUTH GEORGIA

CITY           SKY/WX    TMP DP  RH WIND       PRES   REMARKS
SAVANNAH       PTSUNNY   72  43  35 NW9G23    29.83F
VALDOSTA       MOSUNNY   74  42  31 NW8       29.86F
ALMA           MOSUNNY   72  46  39 NW12      29.85F
ST SIMONS      SUNNY     68  50  52 SE10      29.84F
FT STEWART     MOSUNNY   73  44  34 W7        29.81F
ALBANY         SUNNY     75  40  28 NW14G26   29.89F
HUNTER AFB     PTSUNNY   71  46  40 NW8       29.80F
MOODY AFB      MOSUNNY   73  40  30 NW16G22   29.85F
BRUNSWICK      MOSUNNY   79  45  29 W6        29.84F


CITY           SKY/WX    TMP DP  RH WIND       PRES   REMARKS
BAINBRIDGE*    SUNNY     77  43  29 N13G24    29.90F
MOULTRIE*      MOSUNNY   73  41  31 NW12G17   29.88F
VIDALIA*       MOSUNNY   72  45  37 NW12      29.85S
WAYCROSS*      MOSUNNY   72  47  40 N9        29.85S
DOUGLAS*       PTSUNNY   73  41  31 NW12G18   29.87F
$$




USA.gov is the U.S. government's official web portal to all federal, state and local government web resources and services.